Tracking 28895 objects as of 28-May-2024
HD Live streaming from Space Station
objects crossing your sky now

ATLAS 5 CENTAUR DEB

Track ATLAS 5 CENTAUR DEB now!


NORAD ID: 44003
Int'l Code: 2014-055BJ
Perigee: 9,180.1 km
Apogee: 34,888.9 km
Inclination: 20.5 °
Period: 794.1 minutes
Semi major axis: 28405 km
RCS: Unknown
Launch date: September 17, 2014
Source: United States (US)
Launch site: AIR FORCE EASTERN TEST RANGE (AFETR)

Note: This is SATELLITE DEBRIS
Your satellite tracking list
Your tracking list is empty




NASA's NSSDC Master Catalog

Two Line Element Set (TLE):
1 44003U 14055BJ  24146.38703803 -.00000075  00000-0  00000-0 0  9998
2 44003  20.4945 244.7135 4525322 352.1501   2.7056  1.81342105 37806
Source of the keplerian elements: AFSPC